GW4318 Weather Reports


Display with metric or nautical units.
time (UTC)temp
F
wind
direction
speed
MPH
gust
MPH
rain 1hr
in
rain 24hr
in
rain mn
in
humidity
%
barometer
mb
20260902144018 69 143 2.0 5.0 0.00 0.10 0.00 80 1022.3
20260902143022 69 114 1.0 3.0 0.00 0.10 0.00 82 1022.3
20260902142019 69 148 2.0 4.0 0.00 0.10 0.00 86 1022.3
20260902141019 69 143 2.0 4.0 0.00 0.10 0.00 88 1021.9
20260902140019 68 162 1.0 3.0 0.00 0.10 0.00 91 1021.6
20260902135019 67 147 2.0 3.0 0.00 0.10 0.00 94 1021.6
20260902134039 66 115 1.0 3.0 0.00 0.10 0.00 97 1021.7
20260902133019 65 40 0.0 2.0 0.00 0.11 0.00 98 1021.8
20260902132019 65 153 1.0 2.0 0.00 0.12 0.00 99 1021.6
20260902131039 64 75 0.0 0.0 0.00 0.13 0.00 99 1021.9
20260902130039 64 169 0.0 1.0 0.00 0.13 0.00 99 1022.1
20260902125020 64 220 0.0 2.0 0.00 0.15 0.00 99 1022.1
20260902124019 63 273 0.0 1.0 0.00 0.18 0.00 99 1022.2
20260902123100 63 0.0 0.0 0.00 0.22 0.00 99 1022.2
20260902122020 62 51 0.0 1.0 0.00 0.27 0.00 98 1022.1
20260902121020 62 0.0 0.0 0.00 0.29 0.00 98 1022.3
20260902120020 62 61 0.0 0.0 0.00 0.29 0.00 98 1022.4
20260902115020 62 172 0.0 0.0 0.00 0.29 0.00 98 1022.4
20260902114021 61 276 0.0 1.0 0.00 0.29 0.00 98 1022.5
20260902113020 61 20 0.0 1.0 0.00 0.29 0.00 98 1022.3
20260902112021 61 278 0.0 1.0 0.00 0.29 0.00 98 1022.2
20260902111020 61 120 0.0 1.0 0.00 0.29 0.00 98 1022.2
20260902110021 61 122 0.0 1.0 0.00 0.29 0.00 98 1022.1
20260902105021 61 0.0 0.0 0.00 0.29 0.00 98 1021.8
20260902104021 61 112 0.0 1.0 0.00 0.29 0.00 98 1021.7
20260902103022 61 127 0.0 1.0 0.00 0.29 0.00 98 1021.7
20260902102102 60 142 0.0 0.0 0.00 0.29 0.00 98 1021.7
20260902101022 60 251 0.0 0.0 0.00 0.29 0.00 98 1021.6
20260902100022 60 0.0 0.0 0.00 0.29 0.00 98 1021.4
20260902095042 60 140 0.0 1.0 0.00 0.29 0.00 98 1021.2
20260902094022 60 124 0.0 1.0 0.00 0.29 0.00 98 1021.2
20260902093042 60 165 0.0 1.0 0.00 0.29 0.00 98 1021.0
20260902092022 60 105 0.0 0.0 0.00 0.29 0.00 98 1020.9
20260902091023 60 121 0.0 1.0 0.00 0.29 0.00 98 1020.9
20260902090023 60 99 0.0 0.0 0.00 0.29 0.00 98 1021.0
20260902085023 60 102 0.0 1.0 0.00 0.29 0.00 98 1020.8
20260902084023 60 182 0.0 1.0 0.00 0.29 0.00 98 1020.8
20260902083023 61 204 0.0 1.0 0.00 0.29 0.00 98 1020.7
20260902082023 61 167 0.0 1.0 0.00 0.29 0.00 98 1020.8
20260902081023 61 150 0.0 1.0 0.00 0.29 0.00 98 1020.9
20260902080104 61 208 1.0 1.0 0.00 0.29 0.00 98 1020.8
20260902075023 61 111 0.0 1.0 0.00 0.29 0.00 98 1020.8
20260902074043 61 122 0.0 1.0 0.00 0.29 0.00 98 1021.0
20260902073044 61 187 0.0 0.0 0.00 0.29 0.00 98 1021.1
20260902072024 61 132 0.0 0.0 0.00 0.29 0.00 98 1020.9
20260902071044 61 73 0.0 1.0 0.00 0.29 0.00 98 1020.8
20260902070024 61 137 0.0 1.0 0.00 0.29 0.00 98 1020.8
20260902065024 61 115 0.0 1.0 0.00 0.29 0.00 98 1020.8
20260902064024 61 184 0.0 1.0 0.00 0.29 0.00 98 1020.7
20260902063025 61 136 0.0 1.0 0.00 0.29 0.00 98 1020.8
20260902062025 61 179 0.0 1.0 0.00 0.29 0.00 98 1020.9
20260902061027 61 16 0.0 1.0 0.00 0.29 0.00 98 1020.8
20260902060025 61 86 0.0 1.0 0.00 0.29 0.00 98 1020.8
20260902055045 61 181 0.0 1.0 0.00 0.29 0.00 98 1020.8
20260902054025 61 141 0.0 1.0 0.00 0.29 0.00 98 1020.7
20260902053025 61 163 0.0 1.0 0.00 0.29 0.00 98 1020.7
20260902052025 61 171 0.0 1.0 0.00 0.29 0.00 98 1020.6
20260902051025 61 113 0.0 1.0 0.00 0.29 0.00 98 1020.6
20260902050025 61 111 1.0 1.0 0.00 0.29 0.00 98 1020.4
20260902045026 61 100 1.0 2.0 0.00 0.29 0.00 97 1020.4
20260902044026 60 156 0.0 1.0 0.00 0.29 0.00 97 1020.3
20260902043026 60 150 0.0 1.0 0.00 0.29 0.00 97 1020.2
20260902042026 60 220 0.0 1.0 0.00 0.29 0.00 97 1020.0
20260902041047 60 152 0.0 1.0 0.00 0.29 0.00 97 1019.9
20260902040026 60 212 0.0 1.0 0.00 0.29 0.00 97 1019.5
20260902035026 61 208 0.0 1.0 0.00 0.29 0.29 97 1019.3
20260902034047 61 113 0.0 1.0 0.00 0.29 0.29 97 1019.3
20260902033027 61 170 0.0 0.0 0.00 0.29 0.29 97 1019.4
20260902032027 61 0.0 0.0 0.00 0.29 0.29 97 1019.4
20260902031027 61 148 0.0 1.0 0.00 0.29 0.29 97 1019.4
20260902030027 61 119 1.0 1.0 0.00 0.29 0.29 97 1019.4
20260902025028 62 120 0.0 1.0 0.00 0.29 0.29 97 1019.6
20260902024027 62 277 0.0 0.0 0.00 0.29 0.29 97 1019.7
20260902023027 62 246 0.0 0.0 0.00 0.29 0.29 97 1019.6
20260902022048 62 130 0.0 1.0 0.00 0.29 0.29 97 1019.5
20260902021048 62 145 0.0 1.0 0.00 0.29 0.29 97 1019.6
20260902020028 62 239 0.0 1.0 0.00 0.29 0.29 97 1019.6
20260902015029 62 127 0.0 1.0 0.00 0.29 0.29 97 1019.6
20260902014028 62 255 0.0 1.0 0.00 0.29 0.29 97 1019.5
20260902013028 62 125 0.0 1.0 0.00 0.29 0.29 96 1019.4
20260902012029 61 160 0.0 1.0 0.00 0.29 0.29 96 1019.6
20260902011029 61 74 0.0 1.0 0.00 0.29 0.29 96 1019.5
20260902010029 62 228 0.0 1.0 0.00 0.29 0.29 96 1019.3
20260902005029 62 120 0.0 1.0 0.00 0.29 0.29 96 1019.1
20260902004029 62 107 0.0 1.0 0.00 0.29 0.29 96 1019.3
20260902003029 62 240 0.0 1.0 0.00 0.29 0.29 96 1019.0
20260902002029 62 107 0.0 1.0 0.00 0.29 0.29 96 1018.9
20260902001029 62 192 0.0 2.0 0.00 0.29 0.29 96 1018.8
20260902000029 62 354 0.0 1.0 0.00 0.29 0.29 96 1018.9
20260901235029 63 235 0.0 2.0 0.00 0.29 0.29 95 1018.9
20260901234030 63 221 1.0 2.0 0.00 0.29 0.29 95 1019.0
20260901233030 63 143 1.0 2.0 0.00 0.29 0.29 95 1018.9
20260901232050 63 139 0.0 0.0 0.00 0.29 0.29 95 1018.9
20260901231030 63 0.0 0.0 0.00 0.29 0.29 95 1018.9
20260901230030 63 0.0 0.0 0.00 0.29 0.29 95 1018.7
20260901225030 63 70 0.0 1.0 0.00 0.29 0.29 95 1018.6
20260901224030 63 94 0.0 0.0 0.00 0.29 0.29 95 1018.5
20260901223031 63 122 0.0 1.0 0.00 0.29 0.29 95 1018.6
20260901222016 63 86 0.0 1.0 0.00 0.29 0.29 94 1018.8
20260901221031 64 84 0.0 1.0 0.00 0.29 0.29 95 1018.7
20260901220031 64 120 0.0 1.0 0.00 0.29 0.29 95 1018.6
20260901215032 64 139 1.0 2.0 0.00 0.29 0.29 95 1018.5
20260901214032 64 121 1.0 2.0 0.00 0.29 0.29 96 1018.4
20260901213032 64 188 0.0 1.0 0.00 0.29 0.29 96 1018.4
20260901212032 64 260 0.0 1.0 0.00 0.29 0.29 96 1018.6
20260901211017 64 256 0.0 2.0 0.00 0.29 0.29 95 1018.6
20260901210017 64 226 0.0 2.0 0.00 0.29 0.29 95 1018.5
20260901205018 64 211 0.0 1.0 0.00 0.29 0.29 96 1018.3
20260901204037 63 217 0.0 1.0 0.00 0.29 0.29 95 1018.1
20260901203038 63 154 1.0 2.0 0.00 0.29 0.29 95 1018.0
20260901202038 64 202 1.0 1.0 0.01 0.29 0.29 95 1018.0
20260901201018 64 162 1.0 2.0 0.02 0.29 0.29 95 1017.9
20260901200018 64 163 2.0 3.0 0.03 0.29 0.29 95 1017.9
20260901195018 64 166 1.0 4.0 0.03 0.29 0.29 95 1017.8
20260901194018 65 156 1.0 3.0 0.03 0.29 0.29 95 1017.9
20260901193018 65 124 2.0 4.0 0.03 0.29 0.29 95 1017.9
20260901192019 66 150 2.0 4.0 0.03 0.28 0.28 95 1017.8
20260901191018 66 165 2.0 5.0 0.02 0.27 0.27 95 1017.8
20260901190018 66 198 0.0 1.0 0.01 0.26 0.26 95 1017.8
20260901185019 66 168 1.0 2.0 0.01 0.26 0.26 95 1017.8
20260901184019 66 128 0.0 1.0 0.01 0.26 0.26 95 1017.9
20260901183019 66 106 0.0 0.0 0.03 0.25 0.25 95 1017.8
20260901182019 66 293 1.0 2.0 0.03 0.25 0.25 95 1017.6
20260901181020 67 88 0.0 1.0 0.04 0.25 0.25 95 1017.5
20260901180020 67 163 1.0 2.0 0.06 0.25 0.25 95 1017.4
20260901175039 67 291 0.0 2.0 0.06 0.25 0.25 95 1017.4
20260901174020 67 359 0.0 1.0 0.05 0.24 0.24 94 1017.4
20260901173020 67 150 1.0 2.0 0.04 0.23 0.23 94 1017.4
20260901172020 67 171 0.0 2.0 0.03 0.22 0.22 93 1017.4
20260901171020 67 151 1.0 2.0 0.03 0.22 0.22 92 1017.4
20260901170041 68 68 0.0 1.0 0.01 0.19 0.19 91 1017.5
20260901165020 68 271 0.0 3.0 0.00 0.19 0.19 91 1017.5
20260901164040 68 63 0.0 1.0 0.00 0.19 0.19 90 1017.6
20260901163021 68 129 1.0 3.0 0.00 0.19 0.19 90 1017.5
20260901162021 68 137 1.0 2.0 0.00 0.19 0.19 90 1017.4
20260901161021 69 139 2.0 5.0 0.00 0.19 0.19 89 1017.4
20260901160021 69 108 1.0 3.0 0.00 0.19 0.19 90 1017.2
20260901155021 69 114 0.0 2.0 0.00 0.19 0.19 92 1017.3
20260901154021 69 102 1.0 2.0 0.00 0.19 0.19 91 1017.4
20260901153022 69 142 1.0 2.0 0.00 0.19 0.19 90 1017.4
20260901152041 69 142 1.0 3.0 0.00 0.19 0.19 89 1017.5
20260901151021 69 96 1.0 2.0 0.00 0.19 0.19 92 1017.5
20260901150022 68 126 1.0 3.0 0.00 0.19 0.19 93 1017.6
20260901145022 68 119 1.0 3.0 0.00 0.19 0.19 93 1017.5
20260901144042 68 161 1.0 2.0 0.00 0.19 0.19 94 1017.5